{"data":{"norad_id":61581,"intl_designator":"2024-187H","name":"STARLINK-11374 [DTC]","alt_names":[],"object_type":"PAYLOAD","status":"ACTIVE","operator":null,"country":"US","launch_date":"2024-10-18","launch_site_code":"AFETR","launch_vehicle":null,"mission":null,"orbit_class":"UNKNOWN","rcs_meters":null,"size_class":null,"mass_kg":null,"dimensions":null,"purposes":["comms"],"wikipedia_slug":null,"has_3d_model":false,"image_url":null,"decayed_at":null,"tle_current":{"epoch":"2026-05-25T01:57:52.404192Z","epoch_age_seconds":68764,"freshness":"FRESH","line1":"1 61581U 24187H   26145.08185653  .00001379  00000+0  16234-4 0  9996","line2":"2 61581  53.1596 280.0246 0001243  80.0677 280.0481 15.69715834 92791","mean_motion":15.69715834,"eccentricity":0.0001243,"inclination_deg":53.1596,"raan_deg":280.0246,"arg_perigee_deg":80.0677,"mean_anomaly_deg":280.0481,"bstar":1.6234e-5,"rev_number":9279,"period_min":91.736349268424,"perigee_km":358.87254140759,"apogee_km":360.54757018566,"semimajor_km":6737.8470557966,"source":"CELESTRAK","updated_at":"2026-05-25T13:38:19.403199Z"}}}